WA7BMK Weather Reports


time (UTC)temp
C
wind
direction
speed
KPH
gust
KPH
rain 1hr
cm
rain 24hr
cm
rain mn
cm
humidity
%
barometer
mb
20260507094550 10 0 1.6 6.4 0.00 0.00 0.00 79 1021.3
20260507093038 10 0 0.0 8.0 0.00 0.00 0.00 79 1021.4
20260507091540 10 0 1.6 6.4 0.00 0.00 0.00 79 1021.5
20260507090039 10 0 0.0 4.8 0.00 0.00 0.00 80 1021.4
20260507084549 10 201 1.6 8.0 0.00 0.00 0.00 80 1021.4
20260507083036 10 0 0.0 6.4 0.00 0.00 0.00 82 1021.5
20260507081535 10 0 0.0 0.0 0.00 0.00 0.00 83 1021.6
20260507080035 10 0 0.0 4.8 0.00 0.00 0.00 84 1021.5
20260507074537 10 0 0.0 3.2 0.00 0.00 0.00 85 1021.7
20260507073037 10 0 0.0 1.6 0.00 0.00 0.00 86 1021.5
20260507071542 10 0 0.0 3.2 0.00 0.00 0.00 86 1021.5
20260507070042 10 0 0.0 3.2 0.00 0.00 0.00 87 1021.4
20260507064544 10 0 0.0 8.0 0.00 0.00 0.00 88 1021.5
20260507063037 10 306 1.6 3.2 0.00 0.00 0.00 88 1021.4
20260507061537 10 0 0.0 6.4 0.00 0.00 0.00 88 1021.5
20260507060040 10 0 0.0 6.4 0.00 0.00 0.00 88 1021.5
20260507054540 10 213 0.0 11.3 0.00 0.00 0.00 87 1021.5
20260507053038 11 184 1.6 6.4 0.00 0.00 0.00 86 1021.5
20260507051536 11 0 1.6 11.3 0.00 0.00 0.00 84 1021.6
20260507044540 11 183 1.6 9.7 0.00 0.00 0.00 80 1021.4
20260507043036 12 217 1.6 9.7 0.00 0.00 0.00 79 1021.4
20260507041536 12 190 0.0 4.8 0.00 0.00 0.00 79 1021.3
20260507040036 12 0 0.0 4.8 0.00 0.00 0.00 79 1021.3
20260507034540 12 255 0.0 6.4 0.00 0.00 0.00 79 1021.3
20260507033042 12 202 0.0 4.8 0.00 0.00 0.00 79 1021.1
20260507031536 12 0 0.0 4.8 0.00 0.00 0.00 78 1020.9
20260507030038 12 0 1.6 9.7 0.00 0.00 0.00 77 1020.8
20260507024540 12 0 1.6 6.4 0.00 0.00 0.00 77 1020.8
20260507023030 12 360 1.6 8.0 0.00 0.00 0.00 77 1020.6
20260507021547 13 280 0.0 9.7 0.00 0.00 0.00 76 1020.6
20260507020036 13 286 1.6 9.7 0.00 0.00 0.00 76 1020.7
20260507014532 13 0 1.6 14.5 0.00 0.00 0.00 76 1020.6
20260507013035 13 296 1.6 11.3 0.00 0.00 0.00 76 1020.7
20260507011536 13 263 1.6 9.7 0.00 0.00 0.00 75 1020.6
20260507010043 13 333 3.2 12.9 0.00 0.00 0.00 75 1020.6
20260507004535 13 0 0.0 8.0 0.00 0.00 0.00 75 1020.7
20260507003035 14 295 1.6 8.0 0.00 0.00 0.00 73 1020.7
20260507001534 14 0 1.6 11.3 0.00 0.00 0.00 74 1020.7
20260507000038 14 302 1.6 12.9 0.00 0.00 0.00 74 1020.7
20260506234548 14 317 1.6 9.7 0.00 0.00 0.00 73 1020.7
20260506233036 15 286 1.6 12.9 0.00 0.00 0.00 72 1020.7
20260506231531 15 262 1.6 8.0 0.00 0.00 0.00 72 1020.7
20260506230034 15 0 3.2 12.9 0.00 0.00 0.00 72 1020.7
20260506224537 14 292 3.2 11.3 0.00 0.00 0.00 72 1020.7
20260506223036 14 259 3.2 9.7 0.00 0.00 0.00 72 1020.9
20260506221534 15 277 1.6 12.9 0.00 0.00 0.00 72 1020.9
20260506220036 15 311 3.2 12.9 0.00 0.00 0.00 71 1021.1
20260506214541 15 227 1.6 12.9 0.00 0.00 0.00 71 1021.0
20260506213036 14 228 3.2 14.5 0.00 0.00 0.00 71 1020.9
20260506211535 14 312 3.2 16.1 0.00 0.00 0.00 72 1021.1
20260506210038 13 334 3.2 16.1 0.00 0.00 0.00 72 1021.0
20260506204547 14 330 1.6 9.7 0.00 0.00 0.00 74 1021.0
20260506203033 13 284 1.6 17.7 0.00 0.00 0.00 75 1021.0
20260506201539 13 360 4.8 20.9 0.00 0.00 0.00 74 1020.9
20260506200036 13 360 1.6 16.1 0.00 0.00 0.00 76 1020.9
20260506194539 13 360 4.8 14.5 0.00 0.00 0.00 76 1020.8
20260506193031 13 360 1.6 12.9 0.00 0.00 0.00 77 1020.7
20260506191533 13 360 1.6 14.5 0.00 0.00 0.00 79 1020.6
20260506190038 12 360 3.2 9.7 0.00 0.00 0.00 80 1020.6
20260506184535 12 360 3.2 12.9 0.00 0.00 0.00 80 1020.7
20260506183038 13 360 0.0 9.7 0.00 0.00 0.00 80 1020.6
20260506181536 12 360 1.6 8.0 0.00 0.00 0.00 81 1020.5
20260506180038 12 360 3.2 8.0 0.00 0.00 0.00 81 1020.6
20260506174536 12 360 3.2 9.7 0.00 0.00 0.00 82 1020.5
20260506173037 12 360 1.6 6.4 0.00 0.00 0.00 84 1020.6
20260506171541 11 360 3.2 9.7 0.00 0.00 0.00 84 1020.5
20260506170045 11 360 1.6 9.7 0.00 0.00 0.00 84 1020.5
20260506164546 11 360 0.0 4.8 0.00 0.00 0.00 85 1020.4
20260506163036 11 360 3.2 12.9 0.00 0.00 0.00 85 1020.3
20260506161539 11 132 1.6 6.4 0.00 0.00 0.00 86 1020.1
20260506160042 11 270 1.6 6.4 0.00 0.00 0.00 86 1020.2
20260506154541 11 0 1.6 8.0 0.00 0.00 0.00 87 1020.2
20260506153036 11 173 1.6 6.4 0.00 0.00 0.00 87 1020.0
20260506151549 10 0 1.6 8.0 0.00 0.00 0.00 87 1020.1
20260506150035 10 295 1.6 9.7 0.00 0.00 0.00 88 1020.3
20260506144535 10 319 1.6 9.7 0.00 0.00 0.00 88 1020.1
20260506143044 10 126 1.6 6.4 0.00 0.00 0.00 88 1019.6
20260506141530 10 0 0.0 8.0 0.00 0.00 0.00 88 1019.8
20260506140038 10 0 0.0 8.0 0.00 0.00 0.00 88 1019.9
20260506134536 10 0 1.6 9.7 0.00 0.00 0.00 88 1019.8
20260506133039 10 0 1.6 9.7 0.00 0.00 0.00 88 1019.7
20260506131537 10 244 1.6 8.0 0.00 0.00 0.00 87 1019.5
20260506130033 10 0 0.0 12.9 0.00 0.00 0.00 87 1019.4
20260506124530 11 209 3.2 11.3 0.00 0.00 0.00 87 1019.4
20260506123036 11 233 0.0 6.4 0.00 0.00 0.00 87 1019.3
20260506121533 11 0 0.0 8.0 0.00 0.00 0.00 87 1019.2
20260506120038 11 276 1.6 8.0 0.00 0.00 0.00 87 1019.0
20260506114542 11 163 1.6 8.0 0.00 0.00 0.00 88 1018.8
20260506113033 11 0 0.0 6.4 0.00 0.00 0.00 88 1019.0
20260506111537 11 190 0.0 4.8 0.00 0.00 0.00 87 1018.9
20260506110037 11 164 0.0 4.8 0.00 0.00 0.00 87 1018.8
20260506104537 11 0 0.0 4.8 0.00 0.00 0.00 86 1018.7
20260506103036 11 214 1.6 4.8 0.00 0.00 0.00 86 1018.5
20260506101549 11 198 0.0 3.2 0.00 0.00 0.00 86 1018.4